User: anonymous   Login
Location: Wilsall
(45.9940°N, 110.6590°W)
Time: 12:43:23
(UTC-06:00)
Language:

GP-B - Orbit

View from above orbital plane
View from above orbital plane
View from above satellite
View from above satellite

Ground track
Ground track

The orbit data is extracted from the following two-line orbital elements,

1 28230U 04014A   16239.27345404  .00000124  00000-0  14826-4 0  9996
2 28230  89.8598 127.4818 0003210  99.1733 260.9853 14.78453738665520
Epoch (UTC): 26 August 2016 06:33:46
Eccentricity: 0.0003210
inclination: 89.8598°
perigee height: 632 km
apogee height: 636 km
right ascension of ascending node: 127.4818°
argument of perigee: 99.1733°
revolutions per day: 14.78453738
mean anomaly at epoch: 260.9853°
orbit number at epoch: 66552

The dashed part of the orbit path shows where the satellite is in the earth's shadow,  

DLR